QPF
0.00 0.00 0.00 0.00 0.00 0.00 0.01 0.01 0.01 0.01 0.00 0.00 0.01 0.01 0.01 0.01 0.01 0.01 0.01 0.01 0.00 0.00 0.00 0.01 0.01 0.02 0.03 0.02 0.02 0.02 0.01 0.01 0.01 0.02 0.01 0.01 0.01 0.02 0.03 0.05 0.05 0.06 0.06 0.06
0.00 0.00 0.00 0.00 0.00 0.00 0.00 0.01 0.01 0.01 0.01 0.00 0.00 0.01 0.01 0.02 0.01 0.02 0.01 0.01 0.01 0.01 0.00 0.01 0.01 0.02 0.02 0.02 0.02 0.02 0.01 0.01 0.01 0.01 0.01 0.01 0.03 0.04 0.05 0.05 0.07 0.09 0.11 0.09
0.00 0.00 0.00 0.00 0.00 0.00 0.00 0.00 0.00 0.01 0.00 0.01 0.00 0.01 0.01 0.01 0.02 0.02 0.01 0.02 0.04 0.04 0.01 0.01 0.02 0.03 0.03 0.04 0.04 0.03 0.02 0.02 0.02 0.02 0.02 0.03 0.06 0.06 0.06 0.06 0.07 0.09 0.11 0.12
0.00 0.00 0.00 0.00 0.00 0.00 0.00 0.00 0.00 0.00 0.00 0.00 0.00 0.01 0.01 0.01 0.01 0.01 0.01 0.02 0.05 0.06 0.06 0.06 0.05 0.05 0.04 0.04 0.04 0.03 0.03 0.03 0.02 0.03 0.03 0.05 0.06 0.06 0.07 0.06 0.05 0.06 0.07 0.09
0.00 0.00 0.00 0.00 0.00 0.00 0.00 0.00 0.00 0.00 0.00 0.00 0.00 0.01 0.02 0.02 0.02 0.02 0.02 0.03 0.04 0.04 0.09 0.16 0.16 0.12 0.06 0.04 0.04 0.05 0.04 0.03 0.04 0.04 0.05 0.06 0.07 0.07 0.06 0.05 0.05 0.06 0.07 0.08
0.00 0.00 0.00 0.00 0.00 0.00 0.00 0.00 0.00 0.00 0.00 0.00 0.00 0.01 0.02 0.02 0.02 0.04 0.04 0.03 0.05 0.05 0.07 0.13 0.20 0.18 0.09 0.05 0.06 0.07 0.05 0.06 0.05 0.05 0.06 0.07 0.08 0.07 0.08 0.07 0.09 0.10 0.08 0.08
0.00 0.00 0.00 0.00 0.00 0.00 0.00 0.00 0.00 0.00 0.00 0.00 0.01 0.01 0.02 0.05 0.03 0.03 0.03 0.02 0.04 0.06 0.05 0.06 0.08 0.19 0.18 0.13 0.14 0.15 0.09 0.10 0.08 0.07 0.06 0.08 0.08 0.07 0.07 0.07 0.07 0.08 0.07 0.06
0.00 0.00 0.00 0.00 0.00 0.00 0.00 0.00 0.00 0.00 0.00 0.00 0.01 0.02 0.06 0.05 0.02 0.03 0.02 0.02 0.03 0.04 0.05 0.05 0.05 0.08 0.19 0.19 0.18 0.16 0.12 0.08 0.06 0.05 0.04 0.05 0.04 0.03 0.03 0.04 0.06 0.07 0.06 0.06
0.00 0.00 0.00 0.00 0.00 0.00 0.00 0.00 0.00 0.00 0.00 0.00 0.01 0.02 0.06 0.05 0.02 0.03 0.02 0.02 0.03 0.04 0.06 0.05 0.07 0.22 0.19 0.13 0.09 0.13 0.17 0.09 0.04 0.04 0.05 0.05 0.04 0.03 0.03 0.03 0.05 0.06 0.08 0.08
0.00 0.00 0.00 0.00 0.00 0.00 0.00 0.00 0.00 0.00 0.00 0.00 0.01 0.01 0.02 0.04 0.03 0.03 0.09 0.09 0.06 0.05 0.06 0.05 0.07 0.13 0.11 0.07 0.08 0.17 0.22 0.09 0.05 0.04 0.05 0.05 0.05 0.05 0.06 0.06 0.06 0.06 0.06 0.07
0.00 0.00 0.00 0.00 0.00 0.00 0.00 0.00 0.00 0.00 0.00 0.00 0.01 0.02 0.04 0.06 0.05 0.05 0.06 0.10 0.10 0.07 0.07 0.07 0.10 0.10 0.13 0.12 0.09 0.06 0.08 0.06 0.04 0.04 0.04 0.04 0.04 0.05 0.07 0.06 0.07 0.08 0.09 0.09
0.00 0.00 0.00 0.00 0.00 0.00 0.00 0.00 0.00 0.00 0.00 0.00 0.01 0.01 0.02 0.04 0.05 0.03 0.05 0.07 0.10 0.08 0.07 0.04 0.06 0.05 0.06 0.04 0.03 0.04 0.07 0.06 0.03 0.03 0.02 0.02 0.03 0.03 0.04 0.06 0.09 0.14 0.16 0.15
0.00 0.00 0.00 0.00 0.00 0.00 0.00 0.00 0.00 0.00 0.00 0.00 0.00 0.01 0.01 0.02 0.03 0.04 0.06 0.06 0.06 0.08 0.05 0.04 0.05 0.08 0.06 0.04 0.04 0.04 0.05 0.05 0.04 0.03 0.02 0.01 0.01 0.03 0.04 0.08 0.12 0.15 0.16 0.13
0.00 0.00 0.00 0.00 0.00 0.00 0.00 0.00 0.00 0.00 0.00 0.00 0.00 0.01 0.01 0.02 0.03 0.04 0.06 0.05 0.06 0.08 0.05 0.06 0.05 0.04 0.04 0.03 0.03 0.03 0.03 0.03 0.03 0.03 0.02 0.01 0.02 0.03 0.06 0.09 0.10 0.09 0.09 0.09
0.00 0.00 0.00 0.00 0.00 0.00 0.00 0.00 0.00 0.00 0.00 0.00 0.00 0.01 0.02 0.03 0.05 0.05 0.04 0.05 0.05 0.07 0.06 0.10 0.08 0.03 0.03 0.03 0.02 0.02 0.02 0.02 0.02 0.02 0.02 0.02 0.03 0.05 0.06 0.08 0.07 0.07 0.06 0.08
0.00 0.00 0.00 0.00 0.00 0.00 0.00 0.00 0.00 0.00 0.00 0.00 0.00 0.01 0.02 0.02 0.03 0.03 0.05 0.09 0.05 0.04 0.06 0.08 0.05 0.03 0.04 0.04 0.02 0.02 0.02 0.02 0.02 0.03 0.03 0.03 0.05 0.05 0.06 0.06 0.05 0.06 0.05 0.08
0.00 0.00 0.00 0.00 0.00 0.00 0.00 0.00 0.00 0.00 0.00 0.00 0.01 0.02 0.02 0.01 0.01 0.02 0.02 0.03 0.04 0.04 0.02 0.02 0.03 0.05 0.11 0.07 0.02 0.03 0.04 0.04 0.03 0.02 0.02 0.02 0.02 0.02 0.03 0.03 0.03 0.03 0.04 0.09
0.00 0.00 0.00 0.00 0.00 0.00 0.00 0.00 0.00 0.00 0.00 0.00 0.01 0.02 0.01 0.00 0.01 0.01 0.02 0.02 0.02 0.03 0.03 0.03 0.04 0.04 0.03 0.03 0.03 0.04 0.04 0.03 0.02 0.02 0.02 0.02 0.01 0.02 0.03 0.03 0.04 0.04 0.06 0.13
0.00 0.00 0.00 0.00 0.00 0.00 0.00 0.00 0.00 0.00 0.01 0.01 0.01 0.01 0.01 0.01 0.01 0.02 0.03 0.02 0.02 0.03 0.03 0.03 0.03 0.04 0.06 0.08 0.06 0.06 0.07 0.05 0.03 0.03 0.02 0.02 0.01 0.01 0.02 0.03 0.03 0.04 0.06 0.09
0.00 0.00 0.00 0.00 0.00 0.01 0.00 0.01 0.01 0.00 0.02 0.02 0.03 0.02 0.01 0.01 0.01 0.02 0.02 0.02 0.03 0.07 0.08 0.05 0.04 0.05 0.06 0.10 0.11 0.05 0.05 0.04 0.04 0.04 0.03 0.03 0.01 0.01 0.03 0.04 0.03 0.04 0.03 0.03
0.00 0.00 0.00 0.00 0.00 0.01 0.01 0.01 0.01 0.01 0.02 0.02 0.02 0.01 0.01 0.01 0.01 0.01 0.01 0.02 0.03 0.05 0.06 0.04 0.04 0.05 0.05 0.05 0.04 0.04 0.05 0.04 0.05 0.06 0.05 0.04 0.02 0.03 0.06 0.07 0.07 0.05 0.03 0.03
0.00 0.00 0.00 0.00 0.01 0.02 0.01 0.01 0.02 0.03 0.02 0.02 0.02 0.01 0.01 0.01 0.01 0.01 0.01 0.02 0.04 0.03 0.03 0.03 0.04 0.04 0.05 0.06 0.07 0.08 0.08 0.08 0.09 0.07 0.04 0.02 0.02 0.03 0.06 0.07 0.07 0.06 0.05 0.04
0.01 0.01 0.01 0.01 0.02 0.02 0.02 0.02 0.03 0.04 0.03 0.03 0.03 0.01 0.00 0.01 0.01 0.01 0.01 0.01 0.02 0.01 0.01 0.02 0.03 0.03 0.04 0.05 0.07 0.09 0.10 0.12 0.12 0.09 0.04 0.02 0.02 0.03 0.04 0.05 0.05 0.05 0.05 0.05
0.03 0.03 0.02 0.04 0.05 0.03 0.03 0.03 0.03 0.03 0.04 0.03 0.02 0.01 0.00 0.00 0.00 0.00 0.00 0.01 0.01 0.00 0.01 0.02 0.02 0.03 0.03 0.04 0.05 0.07 0.08 0.12 0.15 0.14 0.08 0.04 0.03 0.02 0.02 0.03 0.03 0.03 0.03 0.03
0.05 0.07 0.08 0.07 0.06 0.04 0.04 0.04 0.03 0.03 0.03 0.05 0.04 0.02 0.01 0.01 0.00 0.00 0.00 0.00 0.00 0.00 0.01 0.02 0.03 0.04 0.03 0.04 0.04 0.07 0.12 0.14 0.15 0.14 0.09 0.06 0.03 0.02 0.02 0.02 0.02 0.02 0.02 0.02
0.12 0.12 0.12 0.11 0.08 0.06 0.06 0.06 0.04 0.03 0.03 0.03 0.02 0.01 0.01 0.01 0.00 0.00 0.01 0.01 0.01 0.01 0.01 0.03 0.03 0.04 0.04 0.05 0.06 0.07 0.10 0.10 0.09 0.08 0.06 0.04 0.02 0.01 0.01 0.01 0.01 0.01 0.01 0.01
MSLP
1013.38 1014.16 1014.74 1015.08 1015.20 1015.15 1015.00 1014.79 1014.57 1014.38 1014.22 1014.08 1013.96 1013.85 1013.75 1013.65 1013.58 1013.55 1013.57 1013.64 1013.76 1013.91 1014.07 1014.23 1014.38 1014.51 1014.64 1014.79 1014.98 1015.23 1015.52 1015.86 1016.20 1016.53 1016.79 1016.97 1017.05 1017.03 1016.95 1016.82 1016.70 1016.63 1016.62 1016.71
1013.93 1014.49 1014.84 1015.01 1015.05 1015.03 1014.99 1014.96 1014.97 1014.98 1014.97 1014.91 1014.76 1014.52 1014.22 1013.90 1013.61 1013.41 1013.31 1013.35 1013.50 1013.73 1013.99 1014.24 1014.45 1014.62 1014.74 1014.86 1015.01 1015.22 1015.51 1015.88 1016.28 1016.69 1017.03 1017.27 1017.38 1017.34 1017.19 1016.97 1016.74 1016.56 1016.46 1016.47
1014.22 1014.51 1014.64 1014.65 1014.65 1014.69 1014.82 1015.05 1015.33 1015.59 1015.76 1015.77 1015.58 1015.20 1014.68 1014.09 1013.54 1013.12 1012.88 1012.86 1013.02 1013.33 1013.71 1014.08 1014.40 1014.62 1014.78 1014.89 1015.02 1015.21 1015.50 1015.88 1016.33 1016.80 1017.20 1017.50 1017.64 1017.60 1017.42 1017.13 1016.81 1016.53 1016.35 1016.29
1014.29 1014.32 1014.24 1014.14 1014.13 1014.29 1014.65 1015.16 1015.75 1016.28 1016.63 1016.72 1016.48 1015.94 1015.16 1014.28 1013.44 1012.77 1012.36 1012.25 1012.42 1012.80 1013.30 1013.81 1014.24 1014.57 1014.78 1014.91 1015.03 1015.20 1015.47 1015.84 1016.31 1016.81 1017.26 1017.60 1017.77 1017.75 1017.55 1017.23 1016.86 1016.51 1016.26 1016.14
1014.24 1014.04 1013.79 1013.63 1013.67 1013.99 1014.59 1015.41 1016.30 1017.09 1017.62 1017.76 1017.46 1016.74 1015.71 1014.53 1013.39 1012.46 1011.87 1011.66 1011.82 1012.26 1012.87 1013.51 1014.08 1014.50 1014.78 1014.94 1015.05 1015.18 1015.41 1015.76 1016.20 1016.70 1017.17 1017.54 1017.74 1017.74 1017.56 1017.23 1016.84 1016.46 1016.16 1015.99
1014.15 1013.78 1013.43 1013.26 1013.39 1013.89 1014.74 1015.84 1017.00 1018.01 1018.68 1018.86 1018.48 1017.60 1016.33 1014.87 1013.46 1012.30 1011.53 1011.23 1011.37 1011.86 1012.56 1013.32 1014.00 1014.51 1014.84 1015.01 1015.09 1015.18 1015.34 1015.62 1016.01 1016.48 1016.93 1017.31 1017.54 1017.57 1017.42 1017.12 1016.75 1016.37 1016.05 1015.85
1014.08 1013.63 1013.25 1013.12 1013.36 1014.04 1015.11 1016.44 1017.81 1018.98 1019.74 1019.92 1019.47 1018.44 1016.98 1015.31 1013.68 1012.34 1011.44 1011.06 1011.18 1011.70 1012.47 1013.31 1014.06 1014.64 1014.99 1015.15 1015.20 1015.21 1015.29 1015.47 1015.78 1016.18 1016.60 1016.96 1017.20 1017.28 1017.17 1016.93 1016.60 1016.25 1015.94 1015.73
1014.06 1013.59 1013.25 1013.20 1013.57 1014.40 1015.63 1017.11 1018.61 1019.86 1020.64 1020.81 1020.29 1019.16 1017.57 1015.77 1014.02 1012.57 1011.60 1011.18 1011.29 1011.83 1012.64 1013.52 1014.31 1014.90 1015.25 1015.38 1015.36 1015.29 1015.26 1015.34 1015.55 1015.86 1016.22 1016.56 1016.81 1016.92 1016.88 1016.70 1016.44 1016.14 1015.88 1015.68
1014.05 1013.65 1013.39 1013.45 1013.93 1014.87 1016.18 1017.71 1019.23 1020.48 1021.24 1021.36 1020.79 1019.61 1017.99 1016.15 1014.39 1012.94 1011.97 1011.55 1011.68 1012.22 1013.03 1013.91 1014.69 1015.26 1015.57 1015.65 1015.56 1015.40 1015.27 1015.25 1015.36 1015.58 1015.88 1016.19 1016.44 1016.59 1016.60 1016.50 1016.32 1016.10 1015.90 1015.73
1013.98 1013.71 1013.58 1013.76 1014.32 1015.30 1016.61 1018.10 1019.54 1020.70 1021.38 1021.44 1020.86 1019.69 1018.12 1016.37 1014.70 1013.34 1012.45 1012.08 1012.23 1012.78 1013.56 1014.39 1015.12 1015.63 1015.89 1015.90 1015.75 1015.52 1015.32 1015.21 1015.24 1015.40 1015.65 1015.93 1016.18 1016.36 1016.43 1016.40 1016.31 1016.17 1016.03 1015.91
1013.81 1013.70 1013.72 1014.00 1014.62 1015.57 1016.80 1018.15 1019.44 1020.44 1021.00 1021.00 1020.42 1019.33 1017.89 1016.32 1014.84 1013.66 1012.91 1012.64 1012.82 1013.35 1014.08 1014.84 1015.48 1015.91 1016.09 1016.05 1015.85 1015.59 1015.35 1015.21 1015.21 1015.33 1015.56 1015.82 1016.08 1016.28 1016.40 1016.44 1016.42 1016.36 1016.29 1016.23
1013.50 1013.57 1013.75 1014.12 1014.75 1015.63 1016.71 1017.86 1018.93 1019.74 1020.15 1020.08 1019.53 1018.57 1017.33 1016.01 1014.78 1013.83 1013.26 1013.09 1013.31 1013.81 1014.45 1015.10 1015.63 1015.97 1016.08 1016.01 1015.80 1015.55 1015.33 1015.21 1015.22 1015.36 1015.58 1015.85 1016.12 1016.35 1016.51 1016.60 1016.64 1016.65 1016.65 1016.64
1013.10 1013.35 1013.66 1014.10 1014.71 1015.49 1016.38 1017.30 1018.12 1018.71 1018.97 1018.85 1018.35 1017.54 1016.54 1015.48 1014.54 1013.84 1013.44 1013.38 1013.61 1014.05 1014.59 1015.11 1015.51 1015.75 1015.80 1015.72 1015.54 1015.34 1015.20 1015.16 1015.23 1015.42 1015.68 1015.98 1016.27 1016.52 1016.71 1016.84 1016.93 1017.00 1017.05 1017.09
1012.69 1013.09 1013.52 1014.01 1014.58 1015.23 1015.93 1016.61 1017.18 1017.55 1017.68 1017.51 1017.08 1016.43 1015.65 1014.88 1014.20 1013.73 1013.49 1013.49 1013.71 1014.06 1014.46 1014.82 1015.09 1015.23 1015.24 1015.16 1015.04 1014.95 1014.92 1015.00 1015.18 1015.45 1015.78 1016.13 1016.45 1016.73 1016.95 1017.11 1017.24 1017.34 1017.43 1017.52
1012.38 1012.90 1013.41 1013.93 1014.45 1014.99 1015.50 1015.96 1016.31 1016.50 1016.50 1016.30 1015.93 1015.43 1014.87 1014.33 1013.89 1013.59 1013.46 1013.48 1013.64 1013.87 1014.10 1014.30 1014.42 1014.46 1014.43 1014.38 1014.34 1014.36 1014.48 1014.70 1015.02 1015.40 1015.82 1016.23 1016.60 1016.91 1017.15 1017.34 1017.50 1017.63 1017.75 1017.87
1012.28 1012.89 1013.45 1013.97 1014.45 1014.87 1015.24 1015.51 1015.68 1015.72 1015.64 1015.43 1015.12 1014.74 1014.35 1014.00 1013.72 1013.53 1013.44 1013.44 1013.49 1013.57 1013.62 1013.64 1013.61 1013.55 1013.49 1013.46 1013.51 1013.65 1013.92 1014.28 1014.74 1015.24 1015.75 1016.23 1016.66 1017.01 1017.29 1017.51 1017.69 1017.84 1017.99 1018.14
1012.46 1013.10 1013.69 1014.21 1014.64 1014.98 1015.22 1015.37 1015.41 1015.35 1015.21 1014.99 1014.73 1014.46 1014.19 1013.96 1013.77 1013.63 1013.53 1013.46 1013.38 1013.27 1013.14 1012.98 1012.80 1012.65 1012.54 1012.53 1012.65 1012.89 1013.28 1013.78 1014.36 1014.97 1015.58 1016.13 1016.61 1017.01 1017.33 1017.59 1017.80 1017.99 1018.16 1018.33
1012.93 1013.57 1014.15 1014.65 1015.04 1015.32 1015.49 1015.55 1015.51 1015.40 1015.23 1015.02 1014.80 1014.59 1014.40 1014.24 1014.08 1013.94 1013.79 1013.60 1013.37 1013.09 1012.78 1012.44 1012.13 1011.88 1011.73 1011.72 1011.88 1012.20 1012.68 1013.27 1013.94 1014.64 1015.33 1015.95 1016.49 1016.95 1017.32 1017.62 1017.87 1018.09 1018.29 1018.47
1013.64 1014.25 1014.80 1015.26 1015.61 1015.85 1015.98 1015.99 1015.92 1015.78 1015.61 1015.42 1015.24 1015.07 1014.91 1014.76 1014.61 1014.42 1014.19 1013.89 1013.52 1013.08 1012.61 1012.13 1011.70 1011.37 1011.17 1011.15 1011.31 1011.66 1012.19 1012.84 1013.56 1014.32 1015.05 1015.74 1016.34 1016.85 1017.28 1017.64 1017.94 1018.20 1018.43 1018.63
1014.47 1015.02 1015.53 1015.95 1016.27 1016.48 1016.58 1016.58 1016.50 1016.37 1016.20 1016.04 1015.87 1015.72 1015.58 1015.43 1015.25 1015.01 1014.69 1014.29 1013.80 1013.25 1012.66 1012.08 1011.57 1011.16 1010.92 1010.87 1011.02 1011.36 1011.89 1012.55 1013.29 1014.06 1014.83 1015.55 1016.20 1016.77 1017.27 1017.69 1018.04 1018.35 1018.60 1018.81
1015.32 1015.81 1016.26 1016.63 1016.91 1017.10 1017.18 1017.18 1017.11 1016.99 1016.85 1016.70 1016.55 1016.41 1016.26 1016.09 1015.88 1015.59 1015.22 1014.75 1014.19 1013.56 1012.91 1012.27 1011.71 1011.26 1010.98 1010.89 1011.01 1011.32 1011.81 1012.44 1013.16 1013.92 1014.69 1015.43 1016.12 1016.74 1017.29 1017.77 1018.18 1018.53 1018.81 1019.03
1016.10 1016.53 1016.91 1017.23 1017.47 1017.63 1017.70 1017.70 1017.64 1017.53 1017.41 1017.27 1017.13 1016.99 1016.84 1016.65 1016.41 1016.09 1015.68 1015.19 1014.60 1013.96 1013.29 1012.65 1012.07 1011.61 1011.31 1011.19 1011.26 1011.52 1011.95 1012.52 1013.19 1013.91 1014.66 1015.40 1016.11 1016.76 1017.36 1017.89 1018.34 1018.72 1019.03 1019.26
1016.76 1017.13 1017.46 1017.72 1017.92 1018.05 1018.10 1018.09 1018.03 1017.93 1017.81 1017.68 1017.54 1017.40 1017.23 1017.03 1016.77 1016.45 1016.04 1015.55 1014.99 1014.38 1013.74 1013.13 1012.58 1012.14 1011.83 1011.68 1011.71 1011.90 1012.26 1012.75 1013.34 1014.00 1014.71 1015.43 1016.13 1016.81 1017.43 1017.99 1018.48 1018.89 1019.22 1019.45
1017.31 1017.63 1017.90 1018.11 1018.26 1018.35 1018.37 1018.34 1018.28 1018.17 1018.05 1017.92 1017.78 1017.62 1017.44 1017.23 1016.97 1016.65 1016.27 1015.82 1015.30 1014.75 1014.18 1013.63 1013.14 1012.72 1012.43 1012.26 1012.24 1012.38 1012.65 1013.05 1013.56 1014.15 1014.79 1015.47 1016.16 1016.83 1017.47 1018.05 1018.55 1018.98 1019.32 1019.56
1017.78 1018.06 1018.28 1018.43 1018.53 1018.57 1018.56 1018.51 1018.42 1018.31 1018.18 1018.03 1017.87 1017.70 1017.51 1017.30 1017.04 1016.74 1016.38 1015.98 1015.53 1015.05 1014.57 1014.09 1013.66 1013.29 1013.01 1012.83 1012.78 1012.84 1013.04 1013.35 1013.77 1014.27 1014.85 1015.47 1016.12 1016.77 1017.40 1017.99 1018.50 1018.94 1019.28 1019.53
1018.21 1018.45 1018.62 1018.73 1018.77 1018.77 1018.72 1018.64 1018.53 1018.40 1018.25 1018.09 1017.91 1017.72 1017.52 1017.29 1017.03 1016.75 1016.42 1016.06 1015.68 1015.27 1014.85 1014.45 1014.07 1013.74 1013.48 1013.29 1013.20 1013.21 1013.33 1013.55 1013.88 1014.30 1014.80 1015.37 1015.97 1016.59 1017.20 1017.78 1018.30 1018.74 1019.09 1019.35
Thickness
5824 5806 5796 5805 5813 5814 5812 5808 5805 5817 5837 5830 5818 5815 5821 5828 5825 5821 5819 5818 5818 5818 5820 5819 5817 5814 5809 5804 5800 5797 5792 5790 5786 5780 5775 5771 5768 5768 5767 5767 5766 5765 5763 5761
5798 5795 5813 5822 5824 5821 5814 5805 5806 5818 5834 5827 5815 5813 5823 5828 5827 5828 5825 5822 5821 5818 5817 5816 5815 5814 5810 5805 5801 5797 5794 5790 5787 5783 5778 5774 5771 5769 5768 5767 5766 5764 5763 5761
5789 5806 5824 5821 5815 5813 5811 5807 5808 5810 5821 5823 5810 5797 5810 5822 5829 5829 5830 5829 5827 5822 5818 5817 5815 5813 5810 5806 5803 5800 5794 5791 5787 5784 5779 5775 5770 5767 5765 5764 5763 5763 5762 5761
5795 5814 5819 5813 5812 5815 5800 5824 5823 5816 5800 5788 5798 5768 5793 5810 5815 5822 5825 5827 5826 5827 5822 5817 5815 5812 5811 5808 5806 5801 5795 5791 5787 5784 5778 5772 5767 5763 5763 5763 5763 5763 5761 5760
5792 5812 5812 5808 5817 5822 5815 5830 5824 5816 5798 5784 5788 5772 5782 5804 5803 5813 5823 5827 5829 5828 5824 5819 5816 5814 5814 5811 5806 5801 5795 5790 5787 5783 5779 5773 5769 5766 5764 5763 5762 5760 5760 5760
5799 5818 5820 5820 5831 5832 5829 5818 5806 5791 5778 5760 5779 5773 5774 5795 5808 5815 5823 5829 5831 5830 5827 5822 5819 5816 5812 5809 5804 5799 5793 5788 5786 5783 5779 5775 5770 5766 5762 5761 5759 5758 5758 5758
5785 5803 5821 5830 5817 5819 5814 5780 5752 5751 5740 5750 5779 5777 5780 5813 5826 5827 5825 5827 5830 5829 5825 5820 5815 5813 5809 5806 5802 5798 5793 5787 5785 5781 5778 5775 5771 5767 5764 5761 5759 5757 5756 5756
5761 5768 5804 5820 5812 5801 5799 5781 5748 5737 5736 5749 5773 5773 5796 5825 5833 5835 5833 5831 5829 5827 5825 5821 5817 5814 5810 5807 5803 5799 5793 5788 5784 5781 5777 5775 5772 5768 5765 5763 5760 5758 5757 5756
5757 5765 5807 5822 5828 5815 5797 5783 5782 5757 5753 5747 5757 5779 5804 5824 5825 5828 5828 5826 5824 5824 5823 5820 5817 5813 5810 5807 5803 5798 5792 5788 5785 5781 5777 5774 5771 5768 5765 5763 5760 5758 5757 5756
5773 5766 5793 5814 5822 5819 5811 5798 5768 5753 5738 5733 5751 5767 5777 5800 5810 5817 5820 5819 5818 5819 5819 5817 5813 5810 5807 5804 5800 5795 5791 5787 5784 5780 5777 5774 5770 5767 5765 5762 5758 5757 5756 5754
5777 5762 5773 5790 5792 5792 5799 5793 5772 5752 5748 5734 5735 5757 5804 5807 5813 5814 5817 5819 5817 5816 5815 5813 5811 5808 5804 5800 5797 5793 5789 5785 5782 5778 5775 5772 5768 5766 5763 5759 5757 5755 5753 5751
5775 5756 5750 5771 5799 5812 5803 5793 5774 5753 5749 5744 5741 5759 5817 5817 5818 5818 5816 5817 5817 5815 5812 5810 5808 5803 5799 5795 5793 5789 5786 5783 5780 5777 5773 5769 5766 5762 5759 5756 5753 5752 5749 5747
5773 5750 5737 5746 5767 5791 5794 5794 5783 5769 5753 5741 5740 5764 5812 5815 5815 5815 5813 5813 5813 5809 5807 5805 5801 5797 5794 5791 5788 5786 5783 5781 5777 5774 5769 5765 5761 5758 5754 5751 5749 5748 5745 5743
5782 5750 5741 5737 5750 5773 5781 5789 5788 5768 5749 5747 5756 5770 5791 5800 5803 5805 5807 5807 5807 5806 5804 5800 5795 5793 5791 5789 5785 5781 5780 5778 5774 5769 5764 5759 5756 5753 5750 5747 5745 5743 5741 5738
5773 5751 5758 5765 5778 5784 5784 5787 5788 5778 5769 5761 5769 5774 5787 5797 5802 5804 5804 5802 5802 5799 5798 5796 5792 5789 5787 5785 5782 5779 5775 5773 5769 5764 5759 5755 5753 5750 5747 5743 5740 5738 5736 5734
5758 5751 5757 5762 5777 5781 5779 5785 5788 5786 5784 5779 5779 5779 5799 5804 5804 5802 5801 5801 5798 5796 5795 5794 5791 5787 5784 5782 5779 5776 5772 5768 5765 5760 5755 5752 5748 5745 5741 5738 5735 5733 5730 5728
5744 5743 5736 5738 5761 5765 5755 5777 5783 5783 5788 5785 5774 5784 5797 5795 5797 5798 5800 5800 5798 5796 5793 5790 5787 5785 5782 5780 5777 5772 5769 5765 5760 5755 5750 5747 5743 5739 5736 5733 5730 5726 5724 5722
5739 5732 5724 5728 5741 5727 5754 5787 5790 5784 5785 5791 5792 5795 5798 5799 5800 5801 5802 5799 5795 5794 5791 5787 5785 5782 5780 5778 5774 5769 5764 5759 5754 5749 5745 5742 5738 5734 5730 5727 5723 5720 5717 5714
5745 5733 5719 5712 5717 5731 5759 5780 5785 5776 5771 5789 5790 5792 5795 5797 5791 5785 5794 5797 5794 5793 5790 5787 5784 5781 5777 5773 5769 5763 5756 5753 5748 5743 5740 5737 5733 5729 5725 5720 5717 5714 5711 5707
5737 5733 5718 5710 5713 5713 5746 5779 5792 5781 5758 5785 5790 5789 5790 5788 5768 5770 5786 5790 5787 5787 5786 5783 5780 5776 5771 5768 5765 5759 5751 5747 5743 5739 5735 5732 5728 5724 5720 5715 5711 5708 5704 5700
5712 5713 5709 5706 5709 5722 5757 5777 5783 5749 5752 5782 5788 5790 5788 5782 5780 5783 5785 5784 5783 5781 5780 5778 5774 5769 5765 5763 5759 5752 5746 5741 5738 5734 5729 5725 5722 5718 5714 5710 5706 5702 5698 5694
5700 5698 5699 5698 5700 5713 5758 5766 5757 5756 5774 5781 5783 5787 5786 5783 5782 5780 5779 5777 5775 5773 5771 5770 5765 5761 5759 5757 5752 5745 5739 5735 5732 5728 5723 5718 5715 5712 5708 5704 5700 5696 5691 5687
5699 5703 5704 5706 5710 5735 5752 5757 5763 5768 5770 5776 5778 5781 5782 5777 5773 5772 5769 5768 5767 5766 5763 5761 5758 5753 5751 5748 5745 5738 5733 5729 5725 5720 5714 5711 5707 5704 5700 5697 5693 5689 5685 5681
5696 5707 5706 5706 5717 5732 5743 5752 5759 5765 5768 5772 5776 5776 5776 5770 5766 5763 5761 5759 5758 5757 5755 5752 5749 5745 5741 5739 5737 5733 5729 5724 5718 5712 5706 5703 5699 5694 5691 5688 5685 5682 5678 5674
5687 5696 5696 5698 5711 5723 5731 5739 5749 5756 5763 5764 5765 5768 5766 5763 5758 5756 5752 5750 5749 5748 5746 5744 5741 5737 5733 5731 5728 5725 5722 5717 5711 5704 5698 5694 5690 5685 5680 5676 5673 5671 5669 5669
5680 5684 5685 5687 5702 5708 5716 5730 5740 5745 5749 5752 5753 5753 5755 5755 5751 5748 5744 5742 5741 5739 5738 5734 5731 5729 5726 5723 5719 5717 5714 5710 5704 5697 5691 5687 5682 5677 5673 5669 5663 5661 5661 5661